EHI
0 0 0 0 0 0 0 0 0 0 0 0 0 0 0 0 0 0 0 0 0 0 0 0 0 0 0 0 0 0 0 0 0 0 0 0 0 0 0 0 0 0 0 0
0 0 0 0 0 0 0 0 0 0 0 0 0 0 0 0 0 0 0 0 0 0 0 0 0 0 0 0 0 0 0 0 0 0 0 0 0 0 0 0 0 0 0 0
0 0 0 0 0 0 0 0 0 0 0 0 0 0 0 0 0 0 0 0 0 0 0 0 0 0 0 0 0 0 0 0 0 0 0 0 0 0 0 0 0 0 0 0
0 0 0 0 0 0 0 0 0 0 0 0 0 0 0 0 0 0 0 0 0 0 0 0 0 0 0 0 0 0 0 0 0 0 0 0 0 0 0 0 0 0 0 0
0 0 0 0 0 0 0 0 0 0 0 0 0 0 0 0 0 0 0 0 0 0 0 0 0 0 0 0 0 0 0 0 0 0 0 0 0 0 0 0 0 0 0 0
0 0 0 0 0 0 0 0 0 0 0 0 0 0 0 0 0 0 0 0 0 0 0 0 0 0 0 0 0 0 0 0 0 0 0 0 0 0 0 0 0 0 0 0
0 0 0 0 0 0 0 0 0 0 0 0 0 0 0 0 0 0 0 0 0 0 0 0 0 0 0 0 0 0 0 0 0 0 0 0 0 0 0 0 0 0 0 0
0 0 0 0 0 0 0 0 0 0 0 0 0 0 0 0 0 0 0 0 0 0 0 0 0 0 0 0 0 0 0 0 0 0 0 0 0 0 0 0 0 0 0 0
0 0 0 0 0 0 0 0 0 0 0 0 0 0 0 0 0 0 0 0 0 0 0 0 0 0 0 0 0 0 0 0 0 0 0 0 0 0 0 0 0 0 0 0
0 0 0 0 0 0 0 0 0 0 0 0 0 0 0 0 0 0 0 0 0 0 0 0 0 0 0 0 0 0 0 0 0 0 0 0 0 0 0 0 0 0 0 0
0 0 0 0 0 0 0 0 0 0 0 0 0 0 0 0 0 0 0 0 0 0 0 0 0 0 0 0 0 0 0 0 0 0 0 0 0 0 0 0 0 0 0 0
0 0 0 0 0 0 0 0 0 0 0 0 0 0 0 0 0 0 0 0 0 0 0 0 0 0 0 0 0 0 0 0 0 0 0 0 0 0 0 0 0 0 0 0
0 0 0 0 0 0 0 0 0 0 0 0 0 0 0 0 0 0 0 0 0 0 0 0 0 0 0 0 0 0 0 0 0 0 0 0 0 0 0 0 0 0 0 0
0 0 0 0 0 0 0 0 0 0 0 0 0 0 0 0 0 0 0 0 0 0 0 0 0 0 0 0 0 0 0 0 0 0 0 0 0 0 0 0 0 0 0 0
0 0 0 0 0 0 0 0 0 0 0 0 0 0 0 0 0 0 0 0 0 0 0 0 0 0 0 0 0 0 0 0 0 0 0 0 0 0 0 0 0 0 0 0
0 0 0 0 0 0 0 0 0 0 0 0 0 0 0 0 0 0 0 0 0 0 0 0 0 0 0 0 0 0 0 0 0 0 0 0 0 0 0 0 0 0 0 0
0 0 0 0 0 0 0 0 0 0 0 0 0 0 0 0 0 0 0 0 0 0 0 0 0 0 0 0 0 0 0 0 0 0 0 0 0 0 0 0 0 0 0 0
0 0 0 0 0 0 0 0 0 0 0 0 0 0 0 0 0 0 0 0 0 0 0 0 0 0 0 0 0 0 0 0 0 0 0 0 0 0 0 0 0 0 0 0
0 0 0 0 0 0 0 0 0 0 0 0 0 0 0 0 0 0 0 0 0 0 0 0 0 0 0 0 0 0 0 0 0 0 0 0 0 0 0 0 0 0 0 0
0 0 0 0 0 0 0 0 0 0 0 0 0 0 0 0 0 0 0 0 0 0 0 0 0 0 0 0 0 0 0 0 0 0 0 0 0 0 0 0 0 0 0 0
0 0 0 0 0 0 0 0 0 0 0 0 0 0 0 0 0 0 0 0 0 0 0 0 0 0 0 0 0 0 0 0 0 0 0 0 0 0 0 0 0 0 0 0
0 0 0 0 0 0 0 0 0 0 0 0 0 0 0 0 0 0 0 0 0 0 0 0 0 0 0 0 0 0 0 0 0 0 0 0 0 0 0 0 0 0 0 0
0 0 0 0 0 0 0 0 0 0 0 0 0 0 0 0 0 0 0 0 0 0 0 0 0 0 0 0 0 0 0 0 0 0 0 0 0 0 0 0 0 0 0 0
0 0 0 0 0 0 0 0 0 0 0 0 0 0 0 0 0 0 0 0 0 0 0 0 0 0 0 0 0 0 0 0 0 0 0 0 0 0 0 0 0 0 0 0
0 0 0 0 0 0 0 0 0 0 0 0 0 0 0 0 0 0 0 0 0 0 0 0 0 0 0 0 0 0 0 0 0 0 0 0 0 0 0 0 0 0 0 0
0 0 0 0 0 0 0 0 0 0 0 0 0 0 0 0 0 0 0 0 0 0 0 0 0 0 0 0 0 0 0 0 0 0 0 0 0 0 0 0 0 0 0 0
Wind_Speed
3 3 6 7 6 3 6 6 4 4 3 6 8 6 5 4 5 7 6 6 6 5 2 1 1 2 3 3 3 2 2 1 2 2 2 2 2 2 2 2 2 3 3 3
3 4 5 4 4 3 5 6 5 2 2 3 4 6 5 5 6 8 8 8 7 5 3 2 2 2 3 3 3 3 2 2 2 1 1 1 1 1 1 0 1 1 2 2
4 3 6 6 6 5 4 6 6 4 3 2 2 4 6 7 5 6 7 7 6 8 8 5 4 3 3 3 3 3 3 3 2 1 1 2 2 1 1 1 1 2 2 2
2 3 6 7 5 5 4 4 5 5 5 1 2 4 7 7 8 9 10 8 8 7 7 6 5 4 4 3 3 4 4 4 4 3 2 2 2 1 0 1 1 2 3 3
3 4 8 8 5 5 3 4 4 4 4 1 1 3 8 3 9 13 12 10 9 8 9 8 7 6 4 4 4 4 5 5 5 4 3 3 2 1 0 1 2 2 3 4
1 1 2 4 4 4 4 6 6 5 3 4 5 5 9 6 10 8 8 9 9 9 9 8 6 6 5 4 4 4 5 5 5 5 4 4 3 2 1 2 2 2 2 3
3 2 1 2 5 2 4 6 3 2 3 5 4 6 11 8 8 8 8 8 7 9 10 10 9 7 6 5 4 4 5 5 4 5 5 4 3 2 2 2 2 2 2 3
4 2 1 1 4 6 4 6 6 6 5 2 3 9 10 6 5 6 7 5 6 8 9 9 9 8 7 6 5 5 5 4 4 4 4 4 4 3 2 3 2 2 2 2
5 2 2 2 2 6 6 3 3 4 2 1 6 8 10 5 5 5 4 4 7 8 8 8 7 7 7 6 5 5 5 4 4 4 4 4 4 4 4 4 3 3 3 3
4 4 2 2 3 2 3 6 5 4 4 4 5 5 6 5 6 5 4 5 7 7 7 7 7 6 5 5 5 5 5 4 3 3 3 4 4 4 4 4 5 4 5 5
3 4 4 3 5 6 4 4 4 4 3 4 4 7 6 6 6 7 6 5 7 8 8 7 6 6 6 5 5 5 4 4 4 4 4 4 4 4 4 4 4 4 4 5
3 3 3 2 0 2 4 6 7 5 4 4 3 9 4 4 6 5 5 5 6 7 6 6 6 6 6 5 5 5 4 4 3 3 4 4 4 4 4 5 5 5 5 5
5 5 4 1 1 2 4 4 5 4 4 5 5 9 3 2 2 2 4 5 6 6 6 6 6 6 6 6 5 5 4 4 4 4 4 4 4 4 4 4 4 5 5 5
5 4 4 6 4 5 5 5 7 6 5 6 9 9 8 6 3 2 4 6 6 6 7 7 6 6 6 6 5 5 4 4 4 4 4 4 4 4 4 4 5 5 5 5
4 2 3 3 2 4 5 7 9 11 9 9 8 9 11 7 6 5 5 6 6 6 7 8 8 6 6 6 5 5 5 4 5 5 4 4 4 4 4 5 5 5 5 6
2 2 1 1 1 3 4 7 10 11 10 11 10 14 9 6 4 5 6 7 8 8 9 8 8 8 8 8 7 6 5 5 5 5 5 5 5 5 5 5 5 5 6 5
2 3 2 2 2 1 7 10 12 8 8 9 14 14 5 5 7 8 9 9 10 10 9 9 9 9 9 9 8 8 7 6 5 5 5 5 5 5 5 5 5 5 5 5
5 3 2 1 1 6 8 2 6 7 8 9 9 8 7 9 8 6 7 10 10 9 8 8 7 7 7 7 7 7 6 6 6 6 6 6 6 6 5 5 5 4 4 4
5 5 3 2 2 7 7 3 5 6 7 7 10 11 8 5 2 4 6 8 8 8 6 6 6 7 7 8 8 8 7 6 6 6 6 6 6 6 6 5 5 4 4 4
3 3 3 3 2 5 6 2 2 3 5 3 4 7 5 4 3 5 3 4 4 3 4 5 6 6 8 8 8 9 8 7 7 6 6 6 6 6 6 5 4 3 3 3
3 2 4 4 4 7 7 3 3 2 5 3 2 4 4 6 5 2 2 3 3 4 4 6 7 6 7 8 8 8 7 7 6 6 6 6 6 6 6 5 4 4 4 3
6 5 5 4 5 8 3 3 4 6 3 2 2 2 2 3 1 2 3 3 4 4 4 5 5 5 5 7 8 7 7 6 6 6 6 6 5 5 5 5 4 4 4 3
5 6 5 7 8 4 2 4 4 2 3 3 2 1 2 2 2 2 2 3 3 4 4 4 5 5 4 5 7 7 6 7 7 7 6 6 6 4 5 5 5 4 3 3
3 1 2 4 6 5 5 4 3 2 3 2 1 1 2 2 2 2 2 3 3 3 4 4 5 5 5 5 5 6 7 8 8 7 7 6 6 5 5 4 4 4 4 4
4 1 2 5 6 6 5 3 3 2 1 1 0 1 2 3 3 3 2 2 2 3 3 4 5 6 6 6 6 6 7 8 8 7 6 6 5 5 5 4 4 5 5 6
4 5 4 6 4 3 6 5 3 2 2 2 1 0 1 1 2 2 2 2 2 2 3 4 5 5 5 6 6 7 8 8 8 7 7 5 5 5 4 4 3 7 7 10
Wind_Direction
130 156 193 193 186 145 139 139 157 187 185 174 203 221 228 217 209 221 227 228 227 227 229 78 68 85 98 94 113 128 135 139 133 131 153 175 204 210 211 217 226 229 232 225
124 209 203 166 173 148 144 151 162 151 153 165 197 234 250 231 219 217 219 223 220 214 194 165 115 83 96 103 103 104 108 99 111 141 148 160 160 181 190 209 230 257 256 245
165 189 170 168 174 170 181 170 166 155 114 64 121 268 246 249 236 230 226 221 214 204 197 185 162 133 111 99 95 97 88 78 66 84 96 77 66 44 31 6 351 341 323 297
195 189 162 163 177 164 189 178 155 141 135 196 173 247 258 236 246 240 233 220 213 203 190 183 170 154 138 120 99 92 85 72 56 62 97 131 154 187 256 335 341 349 1 355
196 171 163 171 178 157 162 137 129 125 123 108 186 227 274 236 239 242 234 224 213 198 185 182 173 157 136 120 106 96 86 69 56 58 77 98 103 120 12 10 14 11 10 13
119 101 146 161 142 147 132 89 71 64 92 227 205 198 267 228 221 238 232 220 208 192 178 167 151 136 122 110 101 96 88 70 57 62 64 80 92 80 51 25 12 7 3 9
84 56 39 121 119 123 131 116 112 141 194 238 186 207 248 240 227 226 238 231 207 184 170 162 156 151 141 128 113 101 95 77 59 62 60 61 67 69 62 34 21 14 10 5
140 158 176 124 152 156 162 146 159 177 197 243 204 232 253 253 263 258 256 239 194 178 170 166 162 153 147 138 127 115 106 92 71 67 60 51 52 58 50 39 39 33 22 6
150 163 100 101 100 133 141 165 146 117 112 205 247 275 298 271 275 268 253 203 185 176 169 161 155 150 146 142 137 132 122 105 85 77 74 60 51 55 54 46 44 37 22 23
139 142 135 115 91 54 139 143 120 133 162 232 265 260 253 275 273 274 242 207 185 168 161 155 153 150 145 139 129 122 119 113 99 84 77 78 60 58 58 57 50 42 33 33
128 132 137 146 181 174 144 153 141 146 171 180 248 265 230 239 262 260 243 208 178 167 166 162 155 148 138 131 130 127 123 115 105 94 85 81 69 63 63 61 53 49 46 43
149 126 141 176 184 179 177 176 156 169 205 191 210 269 276 262 268 247 221 186 174 171 167 159 152 146 144 145 143 139 133 126 120 111 98 89 79 74 70 64 57 56 56 53
149 129 122 108 225 187 200 186 175 146 142 174 198 261 297 323 321 213 188 180 175 170 163 157 158 162 163 160 156 150 144 138 129 118 108 97 89 86 80 73 66 63 63 61
132 134 169 188 208 180 190 196 181 170 196 213 224 253 287 302 302 258 202 191 184 181 176 173 178 178 172 167 163 157 151 147 139 128 120 113 107 103 96 88 79 70 66 65
121 165 206 227 217 173 200 201 195 205 212 219 235 236 252 257 255 239 215 196 188 191 190 190 189 183 175 169 167 162 158 155 146 138 133 130 122 113 104 95 85 76 71 69
100 145 138 309 247 211 237 224 212 221 226 236 253 259 248 242 232 226 214 200 201 206 205 200 192 184 183 179 173 167 164 160 151 149 147 141 133 124 114 104 94 86 78 71
139 140 142 273 308 356 260 224 208 207 208 203 234 249 233 231 228 224 216 207 210 211 207 200 197 193 187 181 173 171 166 157 155 155 153 148 142 135 127 118 105 97 89 82
150 143 148 186 78 245 247 236 200 215 238 225 242 256 235 231 237 233 213 205 213 213 207 203 192 182 173 166 161 155 153 157 160 160 157 153 149 142 134 125 117 109 100 91
161 150 149 160 238 280 293 265 188 196 264 234 237 254 255 245 258 271 228 208 211 208 199 189 175 163 158 160 157 151 156 160 164 168 166 162 157 151 146 142 136 127 117 104
123 136 152 166 218 256 261 280 182 136 287 276 232 252 246 164 202 258 218 185 179 157 147 146 139 139 152 157 152 154 163 169 177 175 167 161 158 155 152 149 141 131 128 124
145 167 191 192 234 267 263 265 131 174 260 292 264 256 209 194 214 237 124 119 123 120 123 131 138 148 158 155 154 162 169 182 176 161 154 153 153 152 148 144 141 140 134 126
181 186 196 186 217 255 261 142 182 229 268 296 294 277 203 198 152 110 110 114 117 115 121 133 139 145 150 156 159 168 181 174 155 153 154 155 154 154 153 150 148 147 146 145
205 198 192 198 221 247 237 220 249 249 269 284 284 292 152 146 146 130 127 132 136 139 142 142 147 149 157 168 169 176 177 159 154 155 161 161 159 159 159 162 162 160 166 171
278 235 212 261 269 272 271 264 273 259 252 279 264 190 155 152 147 142 144 150 154 158 161 156 157 168 181 183 182 178 164 161 161 167 169 168 169 169 170 174 176 177 184 189
267 253 250 265 282 304 297 276 278 288 290 308 354 156 164 155 152 161 169 172 175 176 172 172 182 191 193 185 186 176 168 167 170 174 176 176 178 179 184 190 197 195 201 194
216 204 209 245 254 252 282 303 304 276 268 240 205 159 75 144 158 153 169 176 177 186 183 189 198 201 196 188 190 183 177 176 177 182 185 184 182 184 185 190 215 231 221 229